Wind_Speed
73 73 73 74 74 77 80 81 81 78 79 79 80 81 82 84 83 84 85 85 88 83 86 87 90 88 81 83 83 81 84 84 85 77 78 78 76 78 78 63 59 54 56
79 76 74 77 75 73 74 78 76 76 77 81 78 77 74 73 77 79 78 75 80 81 81 82 78 78 78 77 84 80 92 86 79 80 72 78 84 82 75 56 56 54 55
73 73 65 69 71 76 76 76 74 74 73 75 76 75 76 77 73 77 73 73 69 72 78 81 80 78 74 70 79 90 87 82 74 73 78 84 84 74 62 57 54 56 51
73 72 73 75 76 77 75 76 75 70 68 72 74 80 77 75 72 67 64 68 72 75 72 74 81 74 75 82 84 78 73 76 70 84 79 83 71 59 57 58 56 53 47
75 73 75 73 73 73 71 68 71 72 70 70 77 71 67 57 58 65 71 75 69 74 75 77 70 74 81 86 79 73 77 74 84 81 86 65 60 57 54 56 50 45 43
72 71 67 70 77 70 70 69 72 67 68 65 56 57 58 60 61 68 65 73 65 70 73 74 75 87 82 78 73 81 82 81 77 82 84 62 56 55 53 52 47 45 42
69 70 70 70 72 72 70 64 62 68 64 59 59 54 59 57 69 70 63 65 68 67 76 86 83 77 73 69 72 77 82 87 85 74 64 58 54 51 48 44 46 44 42
59 58 49 62 67 67 64 62 66 68 68 63 56 52 56 64 64 66 69 74 79 79 83 80 80 75 78 75 80 87 91 86 76 62 62 53 51 45 41 44 44 40 39
51 44 39 61 56 60 60 49 55 48 48 54 56 59 64 72 72 77 84 82 81 81 85 77 80 76 77 80 87 91 83 71 60 54 55 48 44 45 45 44 42 41 40
40 31 38 58 65 65 62 55 49 50 48 53 62 63 68 71 77 82 87 75 74 78 87 88 83 83 84 90 89 84 71 61 57 53 53 49 46 46 46 49 48 44 41
33 46 59 62 64 58 58 62 62 59 63 68 68 72 74 81 88 90 84 84 84 85 85 90 90 87 92 94 91 74 61 56 51 50 57 51 52 52 55 50 51 50 44
46 58 50 43 50 57 56 65 62 68 76 79 82 86 86 87 85 80 82 88 91 91 90 90 90 94 96 93 75 67 60 57 56 54 57 56 56 57 56 47 49 50 48
49 55 57 50 51 53 62 67 70 70 75 79 83 79 80 89 91 93 90 91 91 95 96 100 102 101 93 78 64 64 62 63 60 54 59 65 65 60 56 47 44 45 50
62 63 62 63 64 70 76 81 81 84 89 90 88 89 90 88 90 93 87 91 96 102 102 99 92 88 79 70 68 69 66 66 66 67 62 68 67 59 52 50 47 47 49
70 70 70 73 77 81 81 83 87 88 91 92 93 94 95 91 91 94 94 97 103 104 99 91 81 77 74 72 72 74 75 82 83 82 67 65 59 59 59 54 54 54 54
66 72 75 72 70 80 85 85 85 84 89 88 89 91 93 94 97 101 100 99 95 95 88 82 78 77 76 77 78 79 84 88 90 84 76 68 66 63 63 61 59 60 61
62 69 69 71 72 71 79 91 87 86 82 84 91 92 91 95 98 97 93 93 89 84 80 79 79 79 83 87 86 79 77 79 79 78 75 73 66 65 63 61 62 62 61
51 60 69 79 75 80 78 80 84 83 86 88 91 92 92 94 91 87 86 84 81 78 80 83 84 82 80 80 83 81 78 83 82 82 80 79 77 69 69 68 65 65 66
44 49 62 67 70 75 78 81 82 84 84 84 83 83 80 80 80 79 77 75 75 77 77 78 80 81 82 83 83 83 84 84 83 77 73 71 72 69 69 69 66 64 67
46 54 52 59 59 65 67 70 75 77 75 74 73 73 74 72 70 68 70 72 76 78 80 82 83 84 86 83 80 78 78 81 80 78 75 75 77 80 81 80 78 80 80
52 48 51 53 59 63 66 65 62 62 64 65 64 62 61 62 66 69 72 74 77 80 80 80 81 80 82 80 78 75 72 72 75 77 80 82 85 88 91 92 91 91 92
45 48 45 47 50 53 53 54 53 53 51 51 51 55 59 63 67 68 71 72 73 74 74 73 71 68 70 70 69 70 71 73 79 85 91 95 99 102 105 107 107 108 107
42 44 43 42 42 43 43 42 41 41 44 49 53 56 59 62 64 66 66 68 70 72 72 72 72 71 70 75 78 80 82 84 87 93 98 105 110 114 118 120 119 117 114
33 31 34 35 34 33 34 37 40 42 44 46 48 52 54 58 63 66 67 69 70 73 74 74 74 76 78 79 83 86 92 95 99 101 107 112 116 117 120 121 123 120 116
28 28 27 26 29 32 33 35 38 40 42 46 51 54 59 60 63 66 67 69 72 74 74 77 78 79 83 86 90 96 103 107 112 115 112 112 109 109 108 107 107 110 111
24 23 24 27 29 31 36 41 44 47 50 53 58 63 67 70 69 68 70 73 75 76 77 78 82 86 90 94 100 105 110 114 113 112 109 102 99 102 105 106 107 109 107
Wind_Direction
272 269 267 269 273 275 275 275 277 280 279 280 280 282 284 283 283 284 284 283 282 286 288 292 293 292 288 292 297 295 298 300 303 302 302 305 302 305 305 300 297 291 287
269 271 272 275 275 278 277 277 280 283 280 280 280 283 285 286 286 288 288 290 288 291 293 289 292 290 291 293 294 295 299 298 302 304 302 303 304 305 307 296 295 293 293
267 269 272 273 278 278 281 280 280 281 284 285 284 284 285 288 286 288 292 289 289 291 292 290 291 293 293 293 295 298 298 302 298 297 303 302 304 305 301 296 295 292 288
267 272 273 277 278 279 278 279 281 283 280 280 281 282 287 287 286 285 284 290 293 293 293 290 291 289 289 292 301 302 297 298 293 302 304 307 304 298 299 295 293 289 282
267 270 274 273 276 276 276 277 277 279 280 281 284 284 286 279 278 282 290 296 292 292 290 289 285 289 295 300 302 297 297 296 301 304 304 303 300 293 293 294 288 284 280
270 271 272 274 273 274 272 271 274 276 275 284 279 277 277 280 288 294 294 293 291 284 286 284 290 295 298 298 293 293 297 301 302 305 304 299 293 291 291 290 283 282 275
268 271 275 274 270 268 270 271 272 275 279 273 270 273 278 280 294 297 283 277 286 282 292 295 295 295 293 293 295 296 300 302 304 307 295 294 291 293 288 282 283 282 275
267 269 272 274 271 272 272 272 272 274 274 274 270 271 276 280 288 282 280 282 288 289 291 293 289 290 289 291 296 301 305 303 302 298 291 292 290 288 285 284 279 277 272
263 269 263 253 268 274 270 275 274 275 273 269 263 266 282 283 279 279 280 281 289 291 294 286 285 289 296 296 299 304 302 299 296 288 284 285 282 283 287 283 275 274 270
250 236 250 258 261 262 267 264 265 267 270 273 270 269 274 276 279 281 285 284 287 289 291 287 287 289 293 301 302 299 297 296 292 284 284 281 283 286 290 285 272 268 265
234 232 243 252 251 252 255 260 259 263 271 272 273 275 276 277 283 282 283 285 289 290 287 286 290 292 298 299 297 297 293 292 287 285 285 279 282 287 288 293 277 267 263
228 223 229 230 239 245 245 249 254 266 271 271 273 273 276 280 282 283 285 288 292 287 291 290 293 295 298 298 295 296 296 292 288 286 288 285 288 289 289 285 274 268 264
214 222 233 237 244 239 248 257 265 273 274 273 273 272 275 280 282 282 286 288 286 285 293 295 296 297 297 295 293 295 293 293 290 288 293 293 292 290 290 278 267 266 263
220 226 234 241 247 254 256 261 263 266 271 274 275 277 280 284 286 288 286 286 288 293 292 296 292 292 293 296 299 301 301 297 296 297 292 293 290 288 286 281 271 265 260
219 226 229 235 245 255 257 261 265 269 271 272 276 278 279 281 282 285 283 288 292 294 292 293 292 294 296 300 303 304 300 298 299 297 295 291 288 285 284 278 276 272 267
229 233 238 246 254 255 256 263 265 267 269 271 276 277 278 280 281 288 290 292 291 293 294 297 298 298 296 297 295 292 291 290 289 292 292 291 289 286 285 282 275 272 269
233 236 241 244 251 256 255 257 263 265 268 270 274 274 277 285 287 288 288 290 290 292 294 294 293 289 288 285 287 290 290 290 290 292 291 290 288 289 285 282 280 275 270
240 238 239 242 248 253 255 257 259 265 267 274 278 277 279 280 285 287 289 289 291 292 290 287 287 288 288 289 290 290 290 289 291 292 292 291 290 286 285 283 279 276 273
251 246 246 247 249 254 257 259 262 266 269 274 276 279 283 286 287 288 288 289 289 289 289 290 290 290 289 289 289 292 295 295 294 295 293 293 290 287 282 279 275 272 272
250 246 252 251 255 260 262 265 268 270 273 279 281 281 283 284 286 287 289 290 289 289 289 290 291 292 293 294 295 296 297 296 295 294 293 290 290 288 285 281 276 272 265
254 259 262 260 265 266 266 270 274 276 277 280 282 283 285 287 287 287 287 288 291 293 294 295 296 296 296 297 296 295 294 291 290 290 287 285 283 281 280 278 275 271 268
255 260 261 265 268 270 271 275 278 280 281 281 283 285 288 289 291 293 294 295 296 297 297 297 297 295 294 293 292 292 289 289 290 290 289 288 288 286 283 281 278 275 272
264 265 266 268 270 272 273 275 277 283 291 293 294 294 295 295 293 294 297 301 302 301 300 299 299 298 296 297 296 294 293 291 289 288 288 289 289 288 286 284 283 282 280
269 269 270 268 269 272 282 291 294 295 299 301 301 303 304 306 306 305 303 302 304 307 305 301 298 297 295 294 295 294 293 290 287 287 288 287 286 284 283 283 283 284 282
261 260 265 279 290 294 298 302 301 302 305 303 308 311 310 309 309 308 307 306 304 299 298 299 299 298 298 298 297 295 294 293 292 291 290 289 289 287 286 283 282 280 278
263 273 286 292 300 302 303 305 305 305 307 310 313 315 316 316 313 310 309 306 304 303 302 302 302 301 300 298 296 295 295 296 297 296 295 294 292 289 287 283 281 280 280
Height
10850 10850 10851 10853 10855 10855 10855 10855 10853 10854 10852 10852 10850 10848 10846 10843 10839 10836 10835 10831 10829 10827 10823 10822 10818 10815 10812 10808 10805 10801 10799 10794 10791 10786 10781 10774 10768 10764 10760 10753 10747 10746 10744
10841 10841 10842 10843 10844 10844 10843 10840 10843 10843 10840 10839 10838 10836 10834 10830 10828 10825 10821 10818 10815 10813 10810 10809 10805 10801 10799 10796 10794 10790 10787 10783 10778 10772 10769 10759 10756 10750 10744 10739 10736 10733 10730
10830 10830 10832 10834 10834 10832 10831 10828 10831 10830 10829 10826 10825 10824 10820 10819 10816 10813 10810 10807 10803 10800 10797 10794 10791 10788 10788 10784 10782 10777 10772 10768 10765 10759 10759 10744 10743 10737 10732 10729 10726 10722 10719
10821 10823 10826 10825 10823 10819 10817 10816 10817 10818 10816 10815 10813 10812 10810 10807 10805 10802 10799 10795 10791 10789 10785 10782 10780 10778 10775 10771 10768 10762 10758 10755 10750 10742 10746 10734 10728 10723 10719 10717 10715 10711 10710
10818 10817 10814 10813 10810 10806 10806 10806 10804 10805 10805 10804 10803 10800 10798 10795 10792 10792 10789 10783 10780 10776 10774 10770 10766 10764 10762 10757 10752 10748 10745 10740 10736 10730 10723 10724 10714 10712 10709 10705 10703 10701 10698
10810 10806 10804 10801 10796 10792 10795 10794 10792 10791 10793 10792 10790 10788 10787 10783 10781 10778 10775 10771 10768 10765 10762 10760 10755 10752 10749 10746 10738 10732 10730 10726 10723 10721 10706 10708 10706 10701 10697 10694 10691 10690 10689
10795 10795 10796 10784 10783 10779 10784 10782 10781 10781 10783 10781 10779 10777 10775 10772 10770 10766 10763 10761 10759 10755 10751 10748 10745 10742 10738 10732 10723 10719 10716 10711 10706 10708 10694 10696 10692 10690 10687 10684 10682 10679 10678
10786 10786 10780 10762 10766 10770 10771 10771 10770 10769 10771 10769 10767 10766 10764 10762 10759 10756 10752 10748 10746 10742 10741 10737 10734 10728 10725 10720 10712 10705 10700 10696 10693 10694 10682 10686 10681 10679 10677 10676 10673 10670 10668
10775 10776 10769 10742 10755 10756 10757 10761 10762 10761 10760 10760 10758 10757 10755 10752 10748 10741 10737 10735 10735 10733 10730 10723 10720 10714 10710 10706 10700 10694 10686 10682 10680 10678 10677 10673 10670 10669 10667 10665 10663 10661 10659
10767 10771 10762 10755 10755 10754 10755 10755 10755 10752 10751 10751 10751 10745 10743 10739 10732 10726 10724 10722 10721 10721 10718 10712 10707 10702 10696 10693 10686 10683 10675 10670 10667 10666 10662 10661 10660 10658 10656 10655 10652 10650 10650
10759 10760 10754 10749 10745 10747 10749 10749 10747 10746 10745 10742 10739 10735 10727 10724 10718 10711 10712 10708 10706 10706 10702 10697 10693 10687 10685 10678 10673 10668 10663 10658 10655 10655 10648 10648 10647 10646 10645 10643 10640 10639 10639
10748 10746 10741 10741 10740 10740 10739 10739 10737 10733 10733 10729 10726 10722 10716 10710 10704 10700 10700 10695 10692 10691 10687 10682 10678 10672 10667 10663 10657 10651 10648 10645 10644 10645 10635 10633 10633 10631 10630 10629 10628 10627 10627
10739 10740 10736 10734 10734 10731 10731 10730 10727 10725 10722 10717 10714 10706 10700 10696 10690 10690 10683 10682 10680 10678 10674 10669 10664 10654 10653 10647 10643 10639 10634 10630 10628 10628 10624 10619 10617 10617 10614 10614 10614 10614 10615
10725 10726 10724 10723 10721 10721 10720 10716 10716 10714 10710 10704 10701 10689 10689 10684 10676 10676 10670 10668 10664 10664 10661 10657 10652 10644 10638 10630 10626 10620 10614 10611 10609 10607 10610 10604 10601 10599 10600 10599 10600 10601 10601
10713 10715 10714 10714 10713 10709 10709 10707 10705 10702 10696 10691 10685 10678 10675 10673 10669 10665 10660 10656 10653 10646 10644 10642 10635 10627 10621 10615 10610 10603 10600 10595 10591 10589 10591 10587 10587 10585 10584 10585 10584 10584 10585
10706 10706 10706 10703 10700 10699 10698 10696 10693 10690 10683 10679 10673 10669 10666 10660 10656 10653 10648 10644 10640 10636 10625 10621 10616 10610 10605 10601 10597 10593 10588 10583 10576 10572 10568 10570 10567 10568 10565 10565 10567 10566 10566
10699 10697 10696 10695 10692 10690 10688 10686 10685 10679 10673 10668 10663 10659 10658 10649 10644 10643 10639 10633 10626 10618 10612 10605 10601 10598 10593 10587 10584 10577 10571 10563 10559 10554 10551 10548 10551 10549 10547 10546 10544 10544 10548
10690 10690 10689 10688 10687 10683 10678 10675 10671 10668 10663 10659 10654 10651 10648 10642 10636 10631 10624 10616 10612 10605 10600 10593 10588 10581 10576 10571 10563 10560 10558 10547 10541 10536 10532 10527 10525 10531 10526 10525 10527 10523 10522
10681 10681 10681 10679 10679 10674 10669 10667 10661 10660 10657 10650 10644 10640 10634 10628 10623 10618 10609 10603 10597 10590 10585 10578 10570 10563 10557 10553 10549 10541 10534 10526 10517 10514 10512 10508 10501 10504 10504 10503 10505 10504 10501
10672 10670 10670 10667 10669 10663 10663 10658 10651 10648 10644 10640 10634 10629 10622 10617 10609 10605 10596 10589 10580 10574 10569 10562 10554 10546 10536 10531 10527 10522 10516 10505 10498 10495 10495 10489 10483 10478 10475 10478 10479 10476 10478
10661 10660 10659 10659 10656 10651 10648 10647 10641 10637 10634 10628 10624 10617 10610 10604 10596 10590 10584 10577 10567 10556 10549 10541 10533 10526 10517 10511 10506 10503 10499 10492 10482 10475 10470 10467 10463 10457 10449 10445 10446 10447 10443
10653 10649 10653 10646 10645 10640 10637 10634 10631 10626 10623 10617 10613 10607 10599 10591 10582 10576 10565 10556 10549 10540 10531 10523 10515 10509 10499 10492 10488 10483 10482 10475 10464 10452 10442 10436 10430 10422 10417 10412 10409 10407 10408
10642 10640 10639 10637 10635 10632 10628 10624 10622 10619 10613 10606 10599 10592 10586 10577 10569 10560 10552 10542 10532 10523 10514 10506 10496 10490 10484 10473 10466 10459 10455 10451 10445 10433 10422 10408 10395 10385 10373 10366 10362 10361 10364
10630 10630 10627 10626 10624 10622 10620 10614 10610 10606 10601 10595 10589 10581 10575 10564 10553 10544 10536 10527 10518 10507 10495 10487 10478 10470 10465 10459 10447 10437 10425 10419 10413 10411 10397 10383 10369 10356 10340 10326 10318 10315 10309
10623 10622 10621 10618 10615 10612 10608 10603 10597 10593 10590 10582 10575 10569 10559 10552 10543 10533 10521 10512 10502 10492 10483 10471 10462 10453 10442 10434 10425 10413 10399 10388 10375 10366 10364 10347 10335 10315 10300 10292 10287 10280 10272
10616 10614 10612 10608 10605 10601 10596 10591 10586 10580 10576 10568 10559 10550 10540 10533 10524 10515 10504 10494 10484 10473 10463 10455 10442 10432 10422 10413 10400 10386 10372 10357 10343 10326 10315 10309 10302 10286 10265 10254 10247 10240 10240